IRIDIUM 77 [+]

Last updated on Sun Sep 03 2017 00:18:23 GMT+0000 (Coordinated Universal Time)

1 25471U 98051E 17245.85038814 .01450639 -99301-6 97208-3 0 9994 2 25471 86.4083 348.6191 0346231 332.7272 145.7962 15.54226787999285

Satellite not in orbit